Location: Villingen
(48.0639°N, 8.4609°E)
Time: 08:21:37
(UTC+01:00)

ISS - Visible Passes

Search period start: 17 February 2019 00:00
Search period end: 27 February 2019 00:00
Orbit: 403 x 411 km, 51.6° (Epoch: 17 February)

Date Brightness Start Highest point End Pass type
(mag) Time Alt. Az. Time Alt. Az. Time Alt. Az.
23 Feb -1.1 06:33:30 10° S 06:35:56 20° SE 06:38:23 10° E visible
24 Feb -0.8 05:43:23 10° SSE 05:44:40 12° SE 05:45:58 10° ESE visible
25 Feb -2.5 06:26:09 10° SW 06:29:13 39° SSE 06:32:19 10° ENE visible
26 Feb -1.8 05:35:45 14° S 05:37:51 24° SE 05:40:33 10° E visible
